[[{"header":{"parameterUnit":"m.s-1","parameterCategory":1,"la1":30.2991,"la2":30.254,"lo1":-89.0895,"lo2":-89.0444,"dy":0.0017,"dx":0.0017,"nx":28,"ny":28,"refTime":"2025-11-04T03:00:00:Z","depth":0,"parameterNumber":2,"parameterNumberName":"U-component_of_WINDS"},"data":[0,0,0,0,0,0,0,0,0,0,0,0,0,0,0,0,0,0,0,0,0,0,0,0,0,0,0,0,0,0,0,0,0,0,0,0,0,0,0,0,0,0,0,0,0,0,0,0,0,0,0,0,0,0,0,0,0,0,-1.0233,-1.0234,0,-1.0304,-1.0304,-1.0305,-1.0268,-1.0266,-1.0265,-1.0263,-1.0336,-1.034,-1.0344,0,0,0,0,0,0,0,0,0,0,0,0,0,-1.0067,-1.007,-1.0233,-1.0234,-1.0235,-1.0303,-1.0304,-1.0305,-1.0269,-1.0266,-1.0264,-1.0262,-1.0335,-1.0339,-1.0344,0,0,0,0,0,0,0,0,0,0,0,0,0,-1.0138,-1.0071,-1.0233,-1.0225,-1.0225,-1.0303,-1.0304,-1.0306,-1.0269,-1.0266,-1.0263,-1.0261,-1.0334,-1.0339,-1.0344,-1.0436,0,0,-1.0362,-1.0364,0,0,0,0,0,0,0,0,-1.0134,-1.0144,-1.0225,-1.0225,-1.0225,-1.0274,-1.0273,-1.0349,-1.027,-1.0252,-1.0263,-1.0259,-1.0318,-1.0325,-1.0344,-1.0439,-1.0442,-1.0362,-1.0365,-1.0368,-1.0369,0,0,0,0,0,0,0,-1.0129,-1.0141,-1.0261,-1.0226,-1.0227,-1.0218,-1.0225,-1.0287,-1.03,-1.0254,-1.0251,-1.026,-1.0318,-1.0339,-1.0346,-1.0443,-1.0362,-1.0367,-1.037,-1.0372,-1.0616,-1.0619,0,0,0,0,0,0,-1.0125,-1.0137,-1.0259,-1.0263,-1.0172,-1.0223,-1.0231,-1.0261,-1.0299,-1.0302,-1.0262,-1.0258,-1.0331,-1.0339,-1.0348,-1.0457,-1.0368,-1.0373,-1.0376,-1.0613,-1.0616,-1.062,0,0,0,0,0,0,-1.0121,-1.0136,-1.0256,-1.0199,-1.0214,-1.0229,-1.0264,-1.0264,-1.0286,-1.0306,-1.0308,-1.0282,-1.0329,-1.034,-1.0414,-1.0459,-1.0375,-1.0381,-1.0609,-1.0614,-1.0618,-1.0677,0,0,0,0,0,0,-1.0117,-1.0135,-1.017,-1.0201,-1.0217,-1.0321,-1.0266,-1.0268,-1.0295,-1.029,-1.0325,-1.0328,-1.0327,-1.0406,-1.0419,-1.0466,-1.0385,-1.0605,-1.0611,-1.0617,-1.0671,-1.0683,-1.0693,0,0,0,0,0,-1.0111,-1.0184,-1.0172,-1.0187,-1.0261,-1.0323,-1.0333,-1.0331,-1.0299,-1.0334,-1.0347,-1.0327,-1.0452,-1.0414,-1.0429,-1.0477,-1.0602,-1.0609,-1.0616,-1.0666,-1.068,-1.0693,0,0,0,0,0,0,-1.0159,-1.0188,-1.0175,-1.026,-1.0289,-1.0317,-1.0362,-1.0347,-1.0386,-1.038,-1.0376,-1.0384,-1.0461,-1.0476,-1.0433,-1.0567,-1.0522,-1.0532,-1.0555,-1.0569,-1.058,-1.0575,-1.039,0,0,0,0,0,-1.0179,-1.0227,-1.025,-1.0322,-1.0338,-1.0347,-1.0374,-1.037,-1.0401,-1.0413,-1.0431,-1.0462,-1.0508,-1.0539,-1.0583,-1.0672,-1.0679,-1.0713,-1.0724,-1.0733,-1.0742,-1.0791,-1.0806,-1.0643,-1.0643,-1.0643,0,0,-1.0222,-1.0243,-1.0274,-1.0333,-1.0355,-1.0405,-1.0358,-1.0413,-1.045,-1.0422,-1.0493,-1.0507,-1.0541,-1.0623,-1.066,-1.0638,-1.0789,-1.0742,-1.0749,-1.0754,-1.0799,-1.0815,-1.0829,-1.0648,-1.0647,-1.0646,0,0,-1.0325,-1.0346,-1.0409,-1.0432,-1.0467,-1.0472,-1.0487,-1.0517,-1.0525,-1.0596,-1.0576,-1.0619,-1.0699,-1.0724,-1.0747,-1.0859,-1.0842,-1.0873,-1.0932,-1.0979,-1.0992,-1.1003,-1.1044,-1.1058,-1.0882,-1.0882,-1.0882,0,-1.0374,-1.0449,-1.0444,-1.05,-1.0527,-1.0502,-1.0566,-1.0588,-1.0635,-1.0654,-1.0629,-1.0728,-1.0749,-1.0836,-1.0863,-1.0883,-1.09,-1.087,-1.099,-1.1002,-1.1012,-1.1051,-1.1066,-1.0886,-1.0885,-1.0885,-1.0885,0,-1.0508,-1.0559,-1.0606,-1.0652,-1.0683,-1.0743,-1.0747,-1.0779,-1.0772,-1.078,-1.0852,-1.0876,-1.0924,-1.0944,-1.0937,-1.103,-1.1016,-1.099,-1.0945,-1.1032,-1.1068,-1.1082,-1.0891,-1.089,-1.0889,-1.0888,0,0,-1.0645,-1.0686,-1.0703,-1.0724,-1.0759,-1.0799,-1.0857,-1.0904,-1.0932,-1.0964,-1.1014,-1.1081,-1.1057,-1.1083,-1.1079,-1.112,-1.1208,-1.109,-1.1091,-1.1112,-1.1312,-1.1332,-1.1349,-1.1195,-1.1198,-1.12,-1.1309,0,-1.0752,-1.0854,-1.0851,-1.0946,-1.0994,-1.0971,-1.1021,-1.1048,-1.1057,-1.1099,-1.1108,-1.1156,-1.1121,-1.1137,-1.1176,-1.1189,-1.1248,-1.118,-1.1242,-1.1244,-1.1236,-1.1368,-1.1389,-1.1491,-1.1323,-1.1326,-1.1327,0,-1.0891,-1.0928,-1.1028,-1.1056,-1.1076,-1.1121,-1.1163,-1.1203,-1.1233,-1.1237,-1.1265,-1.1254,-1.1313,-1.1265,-1.1346,-1.1301,-1.1325,-1.1335,-1.1338,-1.1345,-1.1292,-1.1379,-1.1523,-1.1539,-1.1349,-1.1348,-1.1346,0,-1.0982,-1.1057,-1.1126,-1.1144,-1.1178,-1.1211,-1.1226,-1.1253,-1.1281,-1.1318,-1.1336,-1.1378,-1.1402,-1.1436,-1.1436,-1.1401,-1.1519,-1.1471,-1.1523,-1.1524,-1.1551,-1.1549,-1.1702,-1.1564,-1.1564,-1.1564,-1.1564,0,-1.1103,-1.1165,-1.1168,-1.1211,-1.128,-1.1275,-1.1343,-1.1355,-1.138,-1.1424,-1.1406,-1.1448,-1.1446,-1.1489,-1.1489,-1.1557,-1.1567,-1.1572,-1.1572,-1.1575,-1.1574,-1.1592,-1.1585,-1.1568,-1.1567,-1.1566,-1.1566,0,-1.1218,-1.1222,-1.1296,-1.1321,-1.1329,-1.1379,-1.1401,-1.1442,-1.1448,-1.1505,-1.1518,-1.1528,-1.1577,-1.158,-1.1638,-1.1638,-1.172,-1.1711,-1.171,-1.1709,-1.1762,-1.1757,-1.1932,-1.1955,-1.1802,-1.1803,-1.1804,0,-1.1295,-1.1342,-1.1373,-1.1401,-1.1418,-1.1465,-1.1493,-1.1489,-1.1519,-1.1556,-1.1592,-1.164,-1.1678,-1.1758,-1.177,-1.1814,-1.1807,-1.1865,-1.1813,-1.1814,-1.1809,-1.1806,-1.1811,-1.1875,-1.1877,-1.1878,-1.188,0,-1.1432,-1.1431,-1.1473,-1.1515,-1.1548,-1.1581,-1.1612,-1.1636,-1.1636,-1.167,-1.172,-1.175,-1.1808,-1.1855,-1.1897,-1.1913,-1.1897,-1.1895,-1.191,-1.1914,-1.1912,-1.1915,-1.1739,-1.1892,-1.1891,-1.189,-1.1889,-1.1889,-1.1531,-1.1572,-1.16,-1.1646,-1.1668,-1.1697,-1.1736,-1.1747,-1.1789,-1.1836,-1.183,-1.1886,-1.1914,-1.1969,-1.1988,-1.2031,-1.2011,-1.2032,-1.2038,-1.2043,-1.2049,-1.1904,-1.2038,-1.2038,-1.2038,-1.2037,-1.2037,0,-1.1668,-1.1684,-1.1727,-1.177,-1.1806,-1.1786,-1.1819,-1.185,-1.19,-1.1927,-1.1964,-1.2021,-1.2067,-1.2082,-1.2126,-1.2158,-1.2152,-1.217,-1.2168,-1.2172,-1.2064,-1.2048,-1.2175,-1.2175,-1.2175,-1.2175,-1.2174,-1.2174,-1.1744,-1.1812,-1.1815,-1.1894,-1.1909,-1.1963,-1.1984,-1.201,-1.2031,-1.2096,-1.2134,-1.2143,-1.2166,-1.2211,-1.2252,-1.2255,-1.2273,-1.2294,-1.2295,-1.2194,-1.218,-1.2167,-1.2151,-1.2298,-1.2298,-1.2399,-1.24,-1.2401]},{"header":{"parameterUnit":"m.s-1","parameterCategory":1,"la1":30.2991,"la2":30.254,"lo1":-89.0895,"lo2":-89.0444,"dy":0.0017,"dx":0.0017,"nx":28,"ny":28,"refTime":"2025-11-04T03:00:00:Z","depth":0,"parameterNumber":3,"parameterNumberName":"V-component_of_WINDS"},"data":[0,0,0,0,0,0,0,0,0,0,0,0,0,0,0,0,0,0,0,0,0,0,0,0,0,0,0,0,0,0,0,0,0,0,0,0,0,0,0,0,0,0,0,0,0,0,0,0,0,0,0,0,0,0,0,0,0,0,-5.1988,-5.199,0,-5.2131,-5.2133,-5.2134,-5.2047,-5.2043,-5.2039,-5.2035,-5.2176,-5.2183,-5.2191,0,0,0,0,0,0,0,0,0,0,0,0,0,-5.1633,-5.164,-5.1988,-5.199,-5.1992,-5.2131,-5.2133,-5.2135,-5.2048,-5.2043,-5.2038,-5.2033,-5.2173,-5.2182,-5.2191,0,0,0,0,0,0,0,0,0,0,0,0,0,-5.1783,-5.1642,-5.1988,-5.1965,-5.1965,-5.2131,-5.2133,-5.2135,-5.2049,-5.2043,-5.2036,-5.2031,-5.217,-5.2181,-5.2193,-5.2387,0,0,-5.2227,-5.2232,0,0,0,0,0,0,0,0,-5.1774,-5.1796,-5.1967,-5.1967,-5.1967,-5.2065,-5.2059,-5.222,-5.205,-5.2017,-5.2035,-5.2028,-5.2143,-5.2157,-5.2197,-5.2394,-5.24,-5.2228,-5.2235,-5.224,-5.2243,0,0,0,0,0,0,0,-5.1764,-5.1789,-5.2044,-5.1969,-5.1969,-5.1946,-5.196,-5.2089,-5.2113,-5.2019,-5.2013,-5.2032,-5.2142,-5.2186,-5.22,-5.2402,-5.2228,-5.2238,-5.2245,-5.225,-5.2763,-5.277,0,0,0,0,0,0,-5.1756,-5.1781,-5.204,-5.2049,-5.1853,-5.1957,-5.1973,-5.204,-5.2111,-5.2116,-5.2037,-5.2027,-5.217,-5.2186,-5.2204,-5.2436,-5.224,-5.2251,-5.2257,-5.2757,-5.2765,-5.2772,0,0,0,0,0,0,-5.1749,-5.178,-5.2034,-5.1914,-5.1944,-5.197,-5.2045,-5.2046,-5.209,-5.2125,-5.2128,-5.2078,-5.2166,-5.2188,-5.2342,-5.244,-5.2256,-5.2266,-5.2749,-5.2759,-5.2769,-5.2902,0,0,0,0,0,0,-5.1739,-5.1778,-5.1854,-5.1916,-5.1951,-5.2172,-5.2051,-5.2053,-5.211,-5.2099,-5.2164,-5.2169,-5.2162,-5.2326,-5.2354,-5.2452,-5.2275,-5.274,-5.2753,-5.2765,-5.2889,-5.2915,-5.2938,0,0,0,0,0,-5.1727,-5.1885,-5.1858,-5.189,-5.2047,-5.2178,-5.2198,-5.2189,-5.2119,-5.2194,-5.2216,-5.2167,-5.2425,-5.2342,-5.2373,-5.2476,-5.2734,-5.275,-5.2764,-5.2878,-5.291,-5.2938,0,0,0,0,0,0,-5.1832,-5.1893,-5.1864,-5.2047,-5.2109,-5.2163,-5.2258,-5.2224,-5.2305,-5.2291,-5.2274,-5.2289,-5.245,-5.2478,-5.2386,-5.2667,-5.2568,-5.259,-5.2644,-5.2675,-5.2699,-5.2688,-5.2285,0,0,0,0,0,-5.1877,-5.1981,-5.2027,-5.2184,-5.2217,-5.2233,-5.2289,-5.2277,-5.2339,-5.2364,-5.2398,-5.2458,-5.2552,-5.2615,-5.2704,-5.2892,-5.2904,-5.2978,-5.3003,-5.3023,-5.3042,-5.3142,-5.3176,-5.2823,-5.2822,-5.2822,0,0,-5.197,-5.2016,-5.2082,-5.2207,-5.2253,-5.2359,-5.2255,-5.2371,-5.2449,-5.2381,-5.2529,-5.2556,-5.2622,-5.2794,-5.2871,-5.2822,-5.3142,-5.3042,-5.3058,-5.3066,-5.3162,-5.3195,-5.3225,-5.2833,-5.2831,-5.2829,0,0,-5.2194,-5.224,-5.2375,-5.2424,-5.2495,-5.2505,-5.2537,-5.2598,-5.2613,-5.2762,-5.2713,-5.2804,-5.2967,-5.3016,-5.3062,-5.3304,-5.3261,-5.3333,-5.3461,-5.356,-5.3587,-5.3612,-5.3697,-5.3728,-5.3352,-5.3352,-5.3353,0,-5.23,-5.246,-5.2449,-5.257,-5.2625,-5.257,-5.2706,-5.2752,-5.2849,-5.2887,-5.2831,-5.3035,-5.3075,-5.3258,-5.3317,-5.3356,-5.3391,-5.3326,-5.3585,-5.3609,-5.3632,-5.3713,-5.3745,-5.3361,-5.336,-5.3359,-5.3358,0,-5.2587,-5.2698,-5.2798,-5.2895,-5.2961,-5.3089,-5.3095,-5.3163,-5.3145,-5.316,-5.331,-5.3357,-5.3454,-5.3496,-5.3479,-5.3676,-5.3643,-5.3587,-5.3486,-5.3674,-5.375,-5.3781,-5.3373,-5.337,-5.3367,-5.3365,0,0,-5.2882,-5.297,-5.3007,-5.305,-5.3124,-5.3209,-5.3333,-5.3429,-5.3488,-5.3555,-5.3658,-5.3797,-5.3745,-5.3797,-5.3785,-5.3871,-5.4058,-5.3803,-5.3804,-5.3849,-5.4277,-5.4319,-5.4355,-5.403,-5.4036,-5.4041,-5.4271,0,-5.311,-5.3329,-5.3322,-5.3525,-5.3627,-5.3576,-5.3683,-5.3739,-5.3756,-5.3843,-5.386,-5.3959,-5.3883,-5.3914,-5.3997,-5.4018,-5.4144,-5.4001,-5.4124,-5.4128,-5.4109,-5.4395,-5.4441,-5.4656,-5.4301,-5.4306,-5.4309,0,-5.3405,-5.3485,-5.3699,-5.3758,-5.38,-5.3898,-5.3985,-5.4069,-5.4131,-5.4137,-5.4196,-5.4169,-5.4292,-5.4188,-5.4357,-5.426,-5.4309,-5.4327,-5.4335,-5.4346,-5.423,-5.4413,-5.4724,-5.4757,-5.4356,-5.4352,-5.4349,0,-5.3599,-5.3759,-5.3907,-5.3945,-5.4018,-5.4087,-5.412,-5.4176,-5.4234,-5.4309,-5.4347,-5.4435,-5.4483,-5.4551,-5.4548,-5.4473,-5.4719,-5.4615,-5.4725,-5.4726,-5.4779,-5.4776,-5.5102,-5.4812,-5.4811,-5.4811,-5.481,0,-5.3854,-5.3987,-5.3995,-5.4087,-5.4233,-5.4223,-5.4367,-5.4393,-5.4443,-5.4536,-5.4496,-5.4585,-5.4575,-5.4664,-5.4662,-5.4801,-5.4823,-5.483,-5.4828,-5.4834,-5.4833,-5.4866,-5.4851,-5.4819,-5.4817,-5.4816,-5.4814,0,-5.4095,-5.4106,-5.4264,-5.432,-5.4337,-5.4443,-5.4489,-5.4575,-5.4587,-5.4706,-5.4734,-5.4753,-5.4855,-5.4859,-5.4975,-5.4974,-5.5144,-5.5125,-5.5124,-5.512,-5.523,-5.522,-5.5589,-5.5636,-5.5315,-5.5318,-5.5321,0,-5.4257,-5.4358,-5.4425,-5.4486,-5.4524,-5.4622,-5.4682,-5.4674,-5.4737,-5.4815,-5.4891,-5.4989,-5.5068,-5.5233,-5.5256,-5.5344,-5.5327,-5.545,-5.534,-5.5342,-5.5328,-5.5322,-5.5332,-5.5472,-5.5475,-5.5478,-5.548,0,-5.4544,-5.4544,-5.4633,-5.4724,-5.4796,-5.4866,-5.4931,-5.4983,-5.4983,-5.5055,-5.516,-5.5221,-5.5341,-5.5438,-5.5524,-5.5555,-5.5518,-5.5515,-5.5545,-5.5552,-5.5547,-5.5551,-5.5182,-5.5507,-5.5504,-5.5502,-5.5501,-5.55,-5.475,-5.4838,-5.4898,-5.4998,-5.5046,-5.5108,-5.5191,-5.5215,-5.5303,-5.5401,-5.539,-5.5506,-5.5563,-5.5675,-5.5713,-5.5802,-5.576,-5.5804,-5.5815,-5.5826,-5.5837,-5.5534,-5.5818,-5.5817,-5.5816,-5.5816,-5.5815,0,-5.5035,-5.5071,-5.5163,-5.5256,-5.5334,-5.5293,-5.5363,-5.543,-5.5534,-5.5591,-5.5669,-5.5789,-5.5883,-5.5914,-5.6004,-5.607,-5.6055,-5.6094,-5.6089,-5.6096,-5.5871,-5.5835,-5.6104,-5.6104,-5.6104,-5.6104,-5.6104,-5.6104,-5.5192,-5.5337,-5.5345,-5.5513,-5.5547,-5.5663,-5.5706,-5.5762,-5.5807,-5.5944,-5.6023,-5.6042,-5.6088,-5.6182,-5.6266,-5.6272,-5.6307,-5.6354,-5.6353,-5.6141,-5.6112,-5.6085,-5.6051,-5.6361,-5.6362,-5.6571,-5.6573,-5.6574]}]]